DECAYED
Showing default

CLARITY-1, 63227 (Decayed)

Orbit data source: Space-Track

CLARITY-1, 63227 was an American payload satellite in LEO that was launched on Sat, 15 Mar 2025 UTC via an FALCON 9 launch vehicle from the Air Force Western Test Range (AFWTR). Payload-class satellites include a variety of spacecraft equipped with specific instruments for various scientific and technological missions. These include communications satellites like Starlink; space stations such as the ISS; scientific satellites like the Hubble; Earth observation satellites from companies like Planet Labs, Umbra, and HawkEye 360; GPS; miniature CubeSats for education and research; and military/defense satellites.

Not visible in the next 10 days
Identifier
63227, 2025-052T
Orbit
Decayed
Country
Flag of USUS
Related business
Manufacturer
ALBEDO
Mission
Decayed Commercial Imaging
Bus & Motor
ALBEDO, Unknown motor
Mass
530 kg wet, 485 kg dry
Launch date (UTC)
2025-03-15 (1 year ago)
Launch vehicle
FALCON 9
Launch site
Air Force Western Test Range (AFWTR)
Object type
Payload
Rocket body
Debris
Shape & HBR
Hex Cyl, 1.1 m
Radar Cross Section
2.290 m², Large (>1 m²)

Expand to show TLE details & history
Last TLE update: 2 months ago

TLE from 2 months ago
0 CLARITY-1
1 63227U 25052T   26161.15767168  .09211707  26169-5  12257-3 0  9997
2 63227  97.3825  82.7091 0009598 247.2263 112.8028 16.48960409 70590
Epoch: 2026-06-10T03:47Z
TLE epoch observation values (Epoch: 2026-06-10T03:47:02.833Z)
Latitude
0.00005°
Longitude
127.42744°
Altitude
147.769 km
Speed
7.816 km/s
True Right ascension
05h 30m 50s
True Declination
0° 00' 00"
Sunlit
Object was in daylight at epoch
Visualization orbit readout
Latitude
Unknown
Longitude
Unknown
Altitude
Unknown
Speed
Unknown
Apparent Right ascension
Unknown
Apparent Declination
Unknown
Sunlit
N/A
Visualization observer readout
Local Sidereal Time
10:08:16
Azimuth
Unknown
Elevation
Unknown
Doppler factor
Unknown
Orbital elements
Apogee altitude
145.125 km
Perigee altitude
132.615 km
Semi-major axis
6,517.007 km
Eccentricity
0.00096
Inclination
97.3825°
RAAN
82.7091°
Arg. of periapsis
247.2263°
True anomaly
112.90414°
Mean anomaly
112.8028°
Eccentric anomaly
112.85348°
Mean motion
4.12545 °/min
Orbital period
87.26 mins
BSTAR
0.00012257
Loading maneuver chart data...
Computing Atmospheric mass density...
Loading historical data...
Loading historical data...
Loading historical data...
Loading historical data...
Loading historical data...
Loading historical data...
Loading historical data...

Documentation

Showing up to 5 results
|